Location: Norton
(51.3000°N, 0.8167°E)
Time: 17:45:22
(UTC+00:00)

ATLAS CENTAUR R/B - Pass Details

Date: 03 March 2021
Orbit: 475 x 670 km, 64.7° (Epoch: 30 March)

Event Time Altitude Azimuth Distance (km) Brightness Sun altitude
Rises 19:57:15 0° 229° (SW) 2,519 5.1 -21.8°
Reaches altitude 10° 19:59:22 10° 233° (SW) 1,642 4.2 -22.2°
Maximum altitude 20:02:59 63° 315° (NW) 539 1.4 -22.7°
Enters shadow 20:03:16 60° 342° (NNW) 553 1.4 -22.7°
